Location: Lasqueti Island Observatory
(49.4855°N, 124.2726°W)
Time: 07:56:35
(UTC-08:00)

N. Korean satellite - Visible Passes

Search period start: 02 December 2020 00:00
Search period end: 12 December 2020 00:00
Orbit: 453 x 503 km, 97.2° (Epoch: 01 December)

Date Brightness Start Highest point End Pass type
(mag) Time Alt. Az. Time Alt. Az. Time Alt. Az.
02 Dec 9.1 05:06:54 10° NE 05:09:52 23° E 05:12:49 10° SSE visible
02 Dec 7.3 06:40:01 10° N 06:43:13 30° WNW 06:46:28 10° SW visible
02 Dec 8.1 17:18:55 10° S 17:22:09 39° W 17:25:28 10° NNW visible
03 Dec 10.0 04:41:43 10° ENE 04:43:18 12° E 04:44:54 10° ESE visible
03 Dec 6.5 06:13:24 10° N 06:17:00 59° WNW 06:20:36 10° SSW visible
03 Dec 6.5 16:52:20 10° SSE 16:55:46 85° WSW 16:59:17 10° NNW visible
04 Dec 6.9 05:47:01 10° NNE 05:50:40 67° ESE 05:54:19 10° S visible
04 Dec 9.8 18:01:08 10° SW 18:03:04 14° W 18:05:01 10° NW visible
05 Dec 8.4 05:20:54 10° NNE 05:24:14 33° E 05:27:35 10° SSE visible
05 Dec 7.8 06:54:33 10° NNW 06:57:25 22° WNW 07:00:18 10° WSW visible
05 Dec 8.9 17:33:30 10° SSW 17:36:29 27° W 17:39:32 10° NW visible
06 Dec 9.5 04:55:10 10° NE 04:57:43 18° E 05:00:15 10° SE visible
06 Dec 7.0 06:27:45 10° N 06:31:13 41° WNW 06:34:41 10° SW visible
06 Dec 7.3 17:06:37 10° S 17:10:00 56° W 17:13:29 10° NNW visible
07 Dec 6.5 06:01:14 10° N 06:04:55 83° WNW 06:08:36 10° SSW visible
08 Dec 7.6 05:34:56 10° NNE 05:38:30 48° E 05:42:04 10° S visible
08 Dec 8.2 07:09:09 10° NNW 07:11:30 17° WNW 07:13:52 10° WSW visible
08 Dec 9.5 17:48:12 10° SW 17:50:46 19° W 17:53:23 10° NW visible
09 Dec 8.9 05:08:55 10° NE 05:12:00 25° E 05:15:05 10° SSE visible
09 Dec 7.4 06:42:06 10° N 06:45:19 29° WNW 06:48:32 10° SW visible
09 Dec 8.2 17:20:56 10° SSW 17:24:11 37° W 17:27:32 10° NNW visible
10 Dec 9.9 04:43:30 10° ENE 04:45:23 13° E 04:47:15 10° ESE visible
10 Dec 6.6 06:15:25 10° N 06:19:02 56° WNW 06:22:40 10° SSW visible
10 Dec 6.7 16:54:15 10° S 16:57:43 80° WSW 17:01:18 10° NNW visible
11 Dec 6.8 05:48:58 10° NNE 05:52:39 72° ESE 05:56:21 10° S visible
11 Dec 8.5 07:23:55 10° NW 07:25:28 12° WNW 07:27:01 10° W visible
11 Dec 9.8 18:03:06 10° WSW 18:04:59 14° W 18:06:53 10° WNW visible
